Regional Weather Roundup
Issued by NWS

Home | Current Version | Previous Version | Graphics & Text | Print | Product List | Glossary On
Versions: 1 2 3 4 5 6 7 8 9 10 11 12 13 14 15 16 17 18 19 20 21 22 23 24 25 26 27 28 29 30 31 32 33 34 35 36 37 38 39 40 41 42 43 44 45 46 47 48 49 50
000
ASUS45 KCYS 260610
RWRWY

WYOMING REGIONAL WEATHER ROUNDUP
NATIONAL WEATHER SERVICE CHEYENNE WY
1200 AM MDT FRI MAY 26 2017

NOTE:  "FAIR" INDICATES FEW OR NO CLOUDS BELOW 12,000 FEET
WITH NO SIGNIFICANT WEATHER AND/OR OBSTRUCTIONS TO VISIBILITY.

WYZ001-260700-
YELLOWSTONE NATIONAL PARK

CITY           SKY/WX    TMP DP  RH WIND       PRES   REMARKS
LK YELLOWSTONE   N/A     33  27  78 CALM      29.95F
6HR MIN TEMP:  32; 6HR MAX TEMP:  41;

W YELLOWSTONE  NOT AVBL

$$
WYZ002>013-054>058-071-098>099-260700-
NORTHERN WYOMING

CITY           SKY/WX    TMP DP  RH WIND       PRES   REMARKS
JACKSON        CLOUDY    43  30  61 N9        29.87S
CODY           MOCLDY    48  29  47 E5        29.94R
GREYBULL       CLOUDY    55  26  32 NW14      29.88R
6HR MIN TEMP:  53; 6HR MAX TEMP:  61;

WORLAND        CLOUDY    52  32  46 NW8       29.89R
6HR MIN TEMP:  52; 6HR MAX TEMP:  61;

SHERIDAN       FAIR      43  36  76 W10       29.90R
6HR MIN TEMP:  41; 6HR MAX TEMP:  58;

BUFFALO        CLOUDY    48  35  60 NW13      29.91R
6HR MIN TEMP:  47; 6HR MAX TEMP:  55;

GILLETTE       FAIR      42  36  79 NW6       29.88S
6HR MIN TEMP:  39; 6HR MAX TEMP:  55;

HULETT         FAIR      45  36  70 SW7       29.88S
NEWCASTLE      FAIR      45  32  61 N13       29.89R

$$
WYZ014>020-022>026-101>103-260700-
CENTRAL WYOMING

CITY           SKY/WX    TMP DP  RH WIND       PRES   REMARKS
BIG PINEY      FAIR      31  25  78 NW7       29.91S WCI  24
6HR MIN TEMP:  31; 6HR MAX TEMP:  54;

PINEDALE       FAIR      32  27  80 N7        29.92R WCI  26
DUBOIS         FAIR      39  30  70 SE13G20   29.91R WCI  32
LANDER         CLOUDY    47  36  65 W5        29.92S
6HR MIN TEMP:  46; 6HR MAX TEMP:  57; 6HR PCP: TRACE;

RIVERTON       CLOUDY    48  30  49 NE6       29.92R
6HR MIN TEMP:  48; 6HR MAX TEMP:  58;

CASPER         CLOUDY    47  35  63 E9        29.93R
6HR MIN TEMP:  46; 6HR MAX TEMP:  59;

DOUGLAS        CLOUDY    46  36  68 W3        29.93R
6HR MIN TEMP:  43; 6HR MAX TEMP:  63;


$$
WYZ021-027>030-104>119-260700-
SOUTHERN WYOMING

CITY           SKY/WX    TMP DP  RH WIND       PRES   REMARKS
EVANSTON       FAIR      43  24  47 E7        29.88F
6HR MIN TEMP:  43; 6HR MAX TEMP:  54;

KEMMERER         N/A     41  25  52 CALM      29.91S
ROCK SPRINGS   FAIR      44  30  57 E16       29.91S
6HR MIN TEMP:  43; 6HR MAX TEMP:  59;

DIXON            N/A     44  37  77 NE8       29.93R
RAWLINS        FAIR      43  30  60 NE8       29.90R
6HR MIN TEMP:  42; 6HR MAX TEMP:  58;

SARATOGA       FAIR      43  34  70 SE12G20   29.91S
LARAMIE        CLOUDY    41  35  79 S7        29.93S
6HR MIN TEMP:  41; 6HR MAX TEMP:  51; 6HR PCP: TRACE;

CHEYENNE       MOCLDY    48  35  60 N10       29.92R
6HR MIN TEMP:  47; 6HR MAX TEMP:  53; 6HR PCP:  0.06;

TORRINGTON     FAIR      50  36  58 N16       29.85R
6HR MIN TEMP:  50; 6HR MAX TEMP:  68;

PINE BLUFFS    FAIR      46  46 100 NW7       29.87R

$$



USA.gov is the U.S. government's official web portal to all federal, state and local government web resources and services.